Weather History for KOSH - July, 2013

Change the Weather History Date:

Sunday, July 28, 2013

  Actual Average Record
Temperature  
Mean Temperature 58 °F -  
Max Temperature 66 °F 81 °F 93 °F (2006)
Min Temperature 52 °F 60 °F 51 °F (1972)
Degree Days  
Heating Degree Days 7    
Growing Degree Days 8 (Base 50)    
Moisture  
Dew Point 50 °F    
Average Humidity 76    
Maximum Humidity 89    
Minimum Humidity 61    
Precipitation  
Precipitation 0.00 in - - ()
Sea Level Pressure  
Sea Level Pressure 29.89 in    
Wind  
Wind Speed 8 mph (WNW)    
Max Wind Speed 14 mph    
Max Gust Speed 23 mph    
Visibility 10 miles    
Events Rain    
Averages and records for this station are not official NWS values.
T = Trace of Precipitation, MM = Missing Value Source: NWS Daily Summary

Daily Weather History Graph

Daily Weather History Graph

Search for Another Location

Airport or City:

Trip Planner

Search our weather history database for the weather conditions in past years. The results will help you decide how hot, cold, wet, or windy it might be!

Date:

Astronomy

Jul. 28, 2013 Rise Set
Actual Time 5:38 AM CDT 8:22 PM CDT
Civil Twilight 5:04 AM CDT 8:55 PM CDT
Nautical Twilight 4:22 AM CDT 9:37 PM CDT
Astronomical Twilight 3:34 AM CDT 10:25 PM CDT
Moon 11:26 PM CDT (7/28) 12:37 PM CDT (7/28)
Length of Visible Light 15h 50m
Length of Day
14h 43m
Waning Gibbous, 60% of the Moon is Illuminated
Jul 28
Waning Gibbous
Jul 29
Last Quarter
Aug 6
New
Aug 14
First Quarter
Aug 20
Full

Hourly Weather History & Observations

Time (CDT) Temp. Dew Point Humidity Pressure Visibility Wind Dir Wind Speed Gust Speed Precip Events Conditions
12:53 AM 54.0 °F 48.9 °F 83% 29.83 in 10.0 mi West 5.8 mph - N/A   Overcast
1:53 AM 53.1 °F 48.9 °F 86% 29.82 in 10.0 mi WNW 5.8 mph - N/A   Overcast
2:53 AM 52.0 °F 48.0 °F 86% 29.82 in 10.0 mi WNW 6.9 mph - N/A   Overcast
3:53 AM 52.0 °F 48.9 °F 89% 29.82 in 10.0 mi WNW 6.9 mph - N/A   Overcast
4:53 AM 52.0 °F 48.9 °F 89% 29.82 in 10.0 mi WNW 6.9 mph - N/A   Overcast
5:13 AM 53.6 °F 48.2 °F 82% 29.83 in 10.0 mi West 6.9 mph - N/A   Overcast
5:51 AM 53.6 °F 50.0 °F 88% 29.84 in 10.0 mi WNW 8.1 mph - N/A   Overcast
5:53 AM 53.1 °F 50.0 °F 89% 29.83 in 10.0 mi WNW 6.9 mph - N/A   Overcast
6:53 AM 54.0 °F 50.0 °F 86% 29.84 in 10.0 mi WNW 8.1 mph - N/A   Overcast
7:34 AM 53.6 °F 50.0 °F 88% 29.86 in 10.0 mi WNW 8.1 mph - N/A   Overcast
7:53 AM 54.0 °F 50.0 °F 86% 29.86 in 10.0 mi WNW 6.9 mph - N/A   Overcast
8:53 AM 55.0 °F 48.0 °F 77% 29.87 in 10.0 mi WNW 11.5 mph - N/A   Overcast
9:53 AM 57.0 °F 46.9 °F 69% 29.86 in 10.0 mi West 12.7 mph 18.4 mph N/A   Scattered Clouds
10:34 AM 57.2 °F 46.4 °F 67% 29.88 in 10.0 mi WNW 10.4 mph 18.4 mph N/A   Mostly Cloudy
10:53 AM 57.0 °F 46.9 °F 69% 29.88 in 10.0 mi WNW 13.8 mph 20.7 mph N/A   Mostly Cloudy
11:53 AM 57.9 °F 48.0 °F 70% 29.90 in 10.0 mi West 9.2 mph - N/A   Overcast
12:53 PM 57.9 °F 48.9 °F 72% 29.91 in 10.0 mi WNW 6.9 mph - N/A   Overcast
1:53 PM 59.0 °F 50.0 °F 72% 29.90 in 10.0 mi Variable 5.8 mph - N/A   Overcast
2:02 PM 60.8 °F 50.0 °F 68% 29.90 in 10.0 mi Variable 5.8 mph - N/A   Overcast
2:53 PM 64.0 °F 51.1 °F 63% 29.89 in 10.0 mi WSW 9.2 mph 16.1 mph N/A   Mostly Cloudy
3:53 PM 64.9 °F 51.1 °F 61% 29.88 in 10.0 mi WSW 12.7 mph 23.0 mph N/A   Mostly Cloudy
4:53 PM 64.9 °F 52.0 °F 63% 29.88 in 10.0 mi West 9.2 mph 18.4 mph N/A   Overcast
5:53 PM 64.9 °F 52.0 °F 63% 29.89 in 10.0 mi West 6.9 mph - N/A   Overcast
6:53 PM 64.0 °F 52.0 °F 65% 29.92 in 10.0 mi NW 6.9 mph - 0.00 in   Overcast
7:44 PM 57.2 °F 53.6 °F 88% 29.95 in 6.0 mi NNW 9.2 mph - 0.00 in Rain Light Rain
7:53 PM 59.0 °F 54.0 °F 83% 29.94 in 10.0 mi NNW 11.5 mph 19.6 mph 0.00 in   Overcast
8:12 PM 59.0 °F 53.6 °F 82% 29.95 in 9.0 mi NW 9.2 mph 17.3 mph 0.00 in   Overcast
8:53 PM 60.1 °F 52.0 °F 75% 29.95 in 10.0 mi NW 6.9 mph - 0.00 in   Overcast
9:26 PM 60.8 °F 53.6 °F 77% 29.97 in 10.0 mi WNW 5.8 mph - N/A   Overcast
9:53 PM 61.0 °F 52.0 °F 72% 29.96 in 10.0 mi WNW 10.4 mph - N/A   Overcast
10:53 PM 61.0 °F 50.0 °F 67% 29.97 in 10.0 mi NW 11.5 mph - N/A   Overcast
11:03 PM 60.8 °F 48.2 °F 63% 29.98 in 10.0 mi NW 12.7 mph - N/A   Overcast
11:53 PM 60.1 °F 50.0 °F 69% 29.98 in 10.0 mi NW 8.1 mph - N/A   Overcast